Regional Weather Roundup
Issued by NWS

Home | Current Version | Previous Version | Text Only | Print | Product List | Glossary On
Versions: 1 2 3 4 5 6 7 8 9 10 11 12 13 14 15 16 17 18 19 20 21 22 23 24 25 26 27 28 29 30 31 32 33 34 35 36 37 38 39 40 41 42 43 44 45 46 47 48 49 50
156
ASUS43 KLOT 060008
RWRIL

ILLINOIS REGIONAL WEATHER ROUNDUP
NATIONAL WEATHER SERVICE CHICAGO/ROMEOVILLE IL
600 PM CST FRI FEB 05 2016

NOTE: "FAIR" INDICATES FEW OR NO CLOUDS BELOW 12,000 FEET WITH NO
SIGNIFICANT WEATHER AND/OR OBSTRUCTIONS TO VISIBILITY.

* THESE STATIONS ARE NOT UNDER NWS QUALITY CONTROL. THEY ALSO MAY NOT
  REPORT WEATHER SUCH AS PRECIPITATION OR FOG.

ILZ001-002-007-009-015-016-024-060100-
NORTHWEST ILLINOIS

CITY           SKY/WX    TMP DP  RH WIND       PRES   REMARKS
MOLINE         CLOUDY    30  20  66 S6        30.37R WCI  24
6HR MIN TEMP:  30; 6HR MAX TEMP:  32;

STERLING*      CLOUDY    30  19  64 CALM      30.33R
SAVANNA*       CLOUDY    29  21  71 SW3       30.35R
$$

ILZ003-004-008-010-011-017-018-060100-
NORTH CENTRAL ILLINOIS

CITY           SKY/WX    TMP DP  RH WIND       PRES   REMARKS
ROCKFORD       CLOUDY    30  18  60 CALM      30.35F
6HR MIN TEMP:  29; 6HR MAX TEMP:  32;

FREEPORT*      CLOUDY    28  22  76 SW3       30.35S
ROCHELLE*      CLOUDY    29  21  72 CALM      30.34F
DE KALB*       CLOUDY    29  21  72 CALM      30.34F
PERU*          CLOUDY    31  24  77 CALM      30.37R
$$

ILZ005-006-012>014-019>023-060100-
NORTHEAST ILLINOIS

CITY           SKY/WX    TMP DP  RH WIND       PRES   REMARKS
CHICAGO-OHARE  CLOUDY    30  19  63 W6        30.34F WCI  24
6HR MIN TEMP:  30; 6HR MAX TEMP:  34;

CHICAGO-MIDWAY CLOUDY    32  19  58 W7        30.36S WCI  26
6HR MIN TEMP:  32; 6HR MAX TEMP:  34;

AURORA         CLOUDY    30  23  75 S5        30.35F WCI  25
6HR MIN TEMP:  28; 6HR MAX TEMP:  31;

LANSING*       CLOUDY    30  23  75 W6        30.37S WCI  24
JOLIET*        CLOUDY    31  23  72 CALM      30.38S
WAUKEGAN       CLOUDY    29  19  66 W5        30.34F WCI  24
6HR MIN TEMP:  28; 6HR MAX TEMP:  32;

DUPAGE AIRPORT CLOUDY    29  20  69 W3        30.34F
KANKAKEE*      CLOUDY    30  23  77 W5        30.39F WCI  25
WHEELING       CLOUDY    30  19  63 CALM      30.36F
6HR MIN TEMP:  29; 6HR MAX TEMP:  34;

MORRIS*        CLOUDY    29  23  77 CALM      30.34F
ROMEOVILLE*    CLOUDY    29  22  73 W3        30.37S
NORTHERLY ISL    N/A     30  24  78 E3          N/A
$$

LMZ740>746-060100-
SOUTHERN LAKE MICHIGAN

STATION/POSITION SKY/WX   TEMP    WIND        PRES    VSBY  WAVE
                          AIR SEA DIR/SP/G                  HT/PER
                          (F)     (DEG/KT/KT) (MB)    (MI)  (FT/S)
HARRISON CRIB              31      20/  2/  2   N/A
BURNHAM HARBOR             30      60/  5/  6   N/A
BURNS HARBOR               30     300/  2/  3 1028.8R
MICHIGAN CITY              30     320/  5/  6   N/A
$$

ILZ025>027-034>036-040-047-049-050-058-095>099-060100-
WEST-CENTRAL ILLINOIS

CITY           SKY/WX    TMP DP  RH WIND       PRES   REMARKS
QUINCY         MOCLDY    30  18  60 SE3       30.35F
GALESBURG*     CLOUDY    28  22  78 CALM      30.37S
MACOMB*        CLEAR     29  24  82 CALM      30.39S
JACKSONVILLE*  CLEAR     33  21  60 CALM      30.38R
PITTSFIELD*    CLEAR     32  15  50 CALM      30.38S
$$

ILZ028>032-037-038-041>044-048-051>054-059>061-060100-
CENTRAL ILLINOIS

CITY           SKY/WX    TMP DP  RH WIND       PRES   REMARKS
PONTIAC        CLOUDY    30  25  80 CALM      30.37F
BLOOMINGTON    PTCLDY    28  24  85 E5        30.36F WCI  23
DECATUR        CLEAR     27  21  78 NE8       30.36F WCI  19
PEORIA         PTCLDY    30  19  63 NW3       30.39R
6HR MIN TEMP:  30; 6HR MAX TEMP:  32;

LACON*         CLOUDY    29  22  73 SW3       30.38R
LINCOLN*       CLEAR     30  25  83 CALM      30.38S
SPRINGFIELD    CLEAR     31  24  75 W3        30.38R
6HR MIN TEMP:  31; 6HR MAX TEMP:  37;

TAYLORVILLE    CLEAR     32  23  69 CALM      30.38R
$$

ILZ033-039-045-046-055>057-062-063-060100-
EAST-CENTRAL ILLINOIS

CITY           SKY/WX    TMP DP  RH WIND       PRES   REMARKS
CHAMPAIGN      MOCLDY    29  23  78 CALM      30.37F
RANTOUL*       MOCLDY    31  25  81 NE3       30.39S
MATTOON        CLEAR     28  23  81 NE6       30.37F WCI  22
PARIS*         CLOUDY    30  24  77 NW5       30.41S WCI  25
$$

ILZ079-100>102-060100-
SOUTHWEST ILLINOIS

CITY           SKY/WX    TMP DP  RH WIND       PRES   REMARKS
ALTON          CLEAR     32  19  59 S5        30.37S WCI  27
BELLEVILLE     CLEAR     36  20  52 NE5       30.36R WCI  32
CAHOKIA*       CLEAR     36  16  44 NE5       30.36F WCI  32
SPARTA*        CLEAR     37  22  53 CALM      30.37S
$$

ILZ064>066-069>071-074>076-080>082-084>086-088>090-092>094-060100-
SOUTH-CENTRAL ILLINOIS

CITY           SKY/WX    TMP DP  RH WIND       PRES   REMARKS
CARBONDALE     CLEAR     36  22  56 NE3       30.36F
6HR MIN TEMP:  36; 6HR MAX TEMP:  47;

CAIRO*         CLEAR     46  27  47 CALM      30.37R
EFFINGHAM*     CLEAR     32  26  77 CALM      30.39F
MT. VERNON     CLEAR     30  18  59 CALM      30.38F
CENTRALIA*     CLEAR     35  24  63 CALM      30.38S
SALEM*         CLEAR     34  21  60 CALM      30.38F
METROPOLIS*    CLOUDY    41  27  58 CALM      30.38S
$$

ILZ067-068-072-073-078-083-087-091-060100-
SOUTHEAST ILLINOIS

CITY           SKY/WX    TMP DP  RH WIND       PRES   REMARKS
LAWRENCEVILLE  CLEAR     32  22  66 N7        30.40S WCI  26
FLORA*         CLEAR     36  23  59 CALM      30.38F
FAIRFIELD*     CLEAR     36  20  52 CALM      30.37F
HARRISBURG*    CLEAR     39  26  59 CALM      30.38S
ROBINSON*      CLEAR     31  22  70 N5        30.41S WCI  26
CARMI*         CLEAR     35  27  70 NW5       30.38S WCI  31
$$

ABBREVIATIONS USED IN REMARKS
   TC - TEMPERATURE IN CELSIUS
  WCI - WIND CHILL INDEX
   HX - HEAT INDEX
  VSB - VISIBILITY
$$





USA.gov is the U.S. government's official web portal to all federal, state and local government web resources and services.